N5JNG Weather Reports


time (UTC)temp
C
wind
direction
speed
KPH
gust
KPH
rain 1hr
cm
rain 24hr
cm
rain mn
cm
humidity
%
barometer
mb
20260506135952 26 107 12.9 17.7 0.00 0.00 0.00 100 1007.2
20260506134951 26 116 12.9 17.7 0.00 0.00 0.00 100 1006.9
20260506134451 26 105 11.3 17.7 0.00 0.00 0.00 100 1006.8
20260506133951 26 105 11.3 14.5 0.00 0.00 0.00 100 1006.9
20260506133452 26 130 11.3 17.7 0.00 0.00 0.00 100 1006.9
20260506132952 26 101 12.9 19.3 0.00 0.00 0.00 100 1006.8
20260506132451 26 105 11.3 19.3 0.00 0.00 0.00 100 1006.8
20260506131952 26 116 11.3 16.1 0.00 0.00 0.00 100 1006.8
20260506131452 26 105 11.3 16.1 0.00 0.00 0.00 100 1006.8
20260506130951 26 112 11.3 17.7 0.00 0.00 0.00 100 1006.8
20260506130451 26 104 9.7 17.7 0.00 0.00 0.00 100 1006.7
20260506125449 26 95 8.0 12.9 0.00 0.00 0.00 100 1006.7
20260506124949 26 97 9.7 16.1 0.00 0.00 0.00 100 1006.8
20260506124448 26 97 9.7 16.1 0.00 0.00 0.00 100 1006.6
20260506123948 26 84 9.7 12.9 0.00 0.00 0.00 100 1006.7
20260506122947 26 100 8.0 12.9 0.00 0.00 0.00 100 1006.8
20260506122448 26 109 8.0 12.9 0.00 0.00 0.00 100 1006.7
20260506121948 26 93 6.4 11.3 0.00 0.00 0.00 100 1006.7
20260506121448 26 104 8.0 11.3 0.00 0.00 0.00 100 1006.8
20260506120947 26 95 8.0 12.9 0.00 0.00 0.00 100 1006.7
20260506120448 26 101 8.0 12.9 0.00 0.00 0.00 100 1006.7
20260506115948 26 104 8.0 11.3 0.00 0.00 0.00 100 1006.5
20260506115448 26 102 8.0 11.3 0.00 0.00 0.00 100 1006.5
20260506114947 26 109 8.0 11.3 0.00 0.00 0.00 100 1006.5
20260506114447 26 109 8.0 11.3 0.00 0.00 0.00 100 1006.5
20260506113945 26 103 8.0 11.3 0.00 0.00 0.00 100 1006.4
20260506113446 26 111 6.4 11.3 0.00 0.00 0.00 100 1006.4
20260506112946 26 106 4.8 9.7 0.00 0.00 0.00 100 1006.4
20260506112446 26 104 6.4 9.7 0.00 0.00 0.00 100 1006.5
20260506111945 26 105 6.4 11.3 0.00 0.00 0.00 100 1006.4
20260506111445 26 101 6.4 11.3 0.00 0.00 0.00 100 1006.4
20260506110946 26 107 8.0 12.9 0.00 0.00 0.00 100 1006.5
20260506110446 26 116 8.0 12.9 0.00 0.00 0.00 100 1006.5
20260506105946 26 114 8.0 12.9 0.00 0.00 0.00 100 1006.4
20260506104944 26 114 8.0 12.9 0.00 0.00 0.00 100 1006.4
20260506104444 26 113 8.0 12.9 0.00 0.00 0.00 100 1006.4
20260506103944 26 119 8.0 11.3 0.00 0.00 0.00 100 1006.4
20260506103444 26 122 8.0 14.5 0.00 0.00 0.00 100 1006.5
20260506102944 26 129 6.4 14.5 0.00 0.00 0.00 100 1006.5
20260506101944 26 121 6.4 14.5 0.00 0.00 0.00 100 1006.6
20260506101444 26 119 8.0 14.5 0.00 0.00 0.00 100 1006.6
20260506100945 26 126 8.0 12.9 0.00 0.00 0.00 100 1006.5
20260506095942 26 144 8.0 12.9 0.00 0.00 0.00 100 1006.5
20260506095442 26 118 8.0 14.5 0.00 0.00 0.00 100 1006.4
20260506094942 26 117 8.0 14.5 0.00 0.00 0.00 100 1006.4
20260506094442 26 126 8.0 14.5 0.00 0.00 0.00 100 1006.4
20260506093942 26 125 8.0 16.1 0.00 0.00 0.00 100 1006.3
20260506093442 26 133 9.7 16.1 0.00 0.00 0.00 100 1006.1
20260506092942 26 119 8.0 14.5 0.00 0.00 0.00 100 1006.1
20260506092442 26 119 9.7 16.1 0.00 0.00 0.00 100 1006.2
20260506091942 26 126 11.3 16.1 0.00 0.00 0.00 100 1006.2
20260506090939 26 132 11.3 19.3 0.00 0.00 0.00 100 1006.2
20260506090440 26 111 11.3 19.3 0.00 0.00 0.00 100 1006.1
20260506085940 26 126 12.9 19.3 0.00 0.00 0.00 100 1006.1
20260506085440 26 124 12.9 22.5 0.00 0.00 0.00 100 1006.0
20260506084940 26 128 12.9 22.5 0.00 0.00 0.00 100 1006.1
20260506084439 26 148 12.9 17.7 0.00 0.00 0.00 100 1006.0
20260506083939 26 118 11.3 19.3 0.00 0.00 0.00 100 1006.1
20260506083440 26 142 11.3 19.3 0.00 0.00 0.00 100 1006.1
20260506082940 26 121 11.3 17.7 0.00 0.00 0.00 100 1006.1
20260506080936 26 109 12.9 20.9 0.00 0.00 0.00 100 1006.1
20260506080436 26 117 11.3 20.9 0.00 0.00 0.00 100 1006.2
20260506073436 26 128 11.3 24.1 0.00 0.00 0.00 100 1006.5
20260506072936 26 155 11.3 19.3 0.00 0.00 0.00 100 1006.6
20260506071934 26 161 9.7 17.7 0.00 0.00 0.00 100 1006.9
20260506071434 26 130 9.7 19.3 0.00 0.00 0.00 100 1006.9
20260506070934 26 146 9.7 20.9 0.00 0.00 0.00 100 1007.0
20260506070434 26 144 11.3 20.9 0.00 0.00 0.00 100 1006.9
20260506062434 26 160 12.9 24.1 0.00 0.00 0.00 100 1007.1
20260506061934 26 128 12.9 24.1 0.00 0.00 0.00 100 1007.2
20260506061432 26 131 12.9 24.1 0.00 0.00 0.00 100 1007.3
20260506060932 26 146 12.9 24.1 0.00 0.00 0.00 100 1007.2
20260506060433 26 137 12.9 20.9 0.00 0.00 0.00 100 1007.2
20260506050929 26 161 11.3 19.3 0.00 0.00 0.00 100 1007.1
20260506050427 26 152 14.5 24.1 0.00 0.00 0.00 100 1007.0
20260506044927 26 121 12.9 22.5 0.00 0.00 0.00 100 1007.2
20260506043427 26 132 14.5 20.9 0.00 0.00 0.00 100 1007.1
20260506042927 26 146 16.1 30.6 0.00 0.00 0.00 100 1007.2
20260506041926 27 138 14.5 22.5 0.00 0.00 0.00 100 1007.2
20260506040927 27 138 12.9 25.7 0.00 0.00 0.00 100 1007.2
20260506035927 27 148 14.5 24.1 0.00 0.00 0.00 100 1007.1
20260506035427 27 146 14.5 25.7 0.00 0.00 0.00 100 1007.2
20260506034926 27 147 12.9 25.7 0.00 0.00 0.00 100 1007.0
20260506034426 27 134 14.5 29.0 0.00 0.00 0.00 100 1007.0
20260506033927 27 150 16.1 29.0 0.00 0.00 0.00 100 1006.9
20260506033427 27 117 16.1 29.0 0.00 0.00 0.00 100 1006.9
20260506032926 27 113 14.5 29.0 0.00 0.00 0.00 100 1006.9
20260506032426 27 155 14.5 25.7 0.00 0.00 0.00 100 1006.7
20260506031427 26 130 12.9 24.1 0.00 0.00 0.00 100 1006.7
20260506030926 26 129 14.5 24.1 0.00 0.00 0.00 100 1006.6
20260506025926 26 150 16.1 25.7 0.00 0.00 0.00 100 1006.4
20260506025427 26 131 14.5 29.0 0.00 0.00 0.00 100 1006.4
20260506024926 26 140 14.5 29.0 0.00 0.00 0.00 100 1006.4
20260506024426 26 120 16.1 25.7 0.00 0.00 0.00 100 1006.3
20260506023927 26 119 17.7 30.6 0.00 0.00 0.00 100 1006.2
20260506022926 26 124 16.1 22.5 0.00 0.00 0.00 100 1006.1
20260506022426 27 123 16.1 25.7 0.00 0.00 0.00 100 1006.1
20260506021927 27 121 17.7 29.0 0.00 0.00 0.00 100 1006.0
20260506021427 27 144 17.7 29.0 0.00 0.00 0.00 100 1005.9
20260506020926 27 121 17.7 29.0 0.00 0.00 0.00 100 1005.9
20260506020427 27 133 16.1 29.0 0.00 0.00 0.00 100 1005.9
20260506015927 27 117 17.7 29.0 0.00 0.00 0.00 100 1005.9
20260506015428 27 134 17.7 25.7 0.00 0.00 0.00 100 1005.9
20260506014927 27 113 16.1 29.0 0.00 0.00 0.00 100 1005.9
20260506014428 27 126 16.1 29.0 0.00 0.00 0.00 100 1005.8
20260506013927 27 110 17.7 29.0 0.00 0.00 0.00 100 1005.5
20260506013428 27 113 17.7 25.7 0.00 0.00 0.00 100 1005.5
20260506012928 27 111 19.3 30.6 0.00 0.00 0.00 100 1005.4
20260506012427 27 119 20.9 33.8 0.00 0.00 0.00 100 1005.3
20260506011928 27 126 17.7 33.8 0.00 0.00 0.00 100 1005.3
20260506011428 27 118 17.7 29.0 0.00 0.00 0.00 100 1005.2
20260506010927 27 127 19.3 29.0 0.00 0.00 0.00 100 1005.1
20260506005928 27 108 17.7 32.2 0.00 0.00 0.00 100 1005.0
20260506005425 27 117 17.7 32.2 0.00 0.00 0.00 100 1005.0
20260506004924 27 153 19.3 30.6 0.00 0.00 0.00 100 1004.9
20260506004424 27 127 20.9 35.4 0.00 0.00 0.00 100 1004.9
20260506003925 27 128 20.9 35.4 0.00 0.00 0.00 100 1004.9
20260506003424 27 137 20.9 32.2 0.00 0.00 0.00 100 1004.8
20260506002925 27 114 19.3 32.2 0.00 0.00 0.00 100 1004.7
20260506002425 27 128 20.9 32.2 0.00 0.00 0.00 100 1004.8
20260506001424 27 123 20.9 33.8 0.00 0.00 0.00 100 1004.8
20260506000924 27 117 22.5 33.8 0.00 0.00 0.00 100 1004.8
20260505235923 27 132 22.5 37.0 0.00 0.00 0.00 100 1004.9
20260505235422 27 134 22.5 37.0 0.00 0.00 0.00 100 1004.8
20260505234423 28 128 24.1 37.0 0.00 0.00 0.00 100 1004.7
20260505233923 28 125 24.1 38.6 0.00 0.00 0.00 100 1004.7
20260505232923 28 128 20.9 35.4 0.00 0.00 0.00 100 1004.8
20260505232423 28 121 20.9 37.0 0.00 0.00 0.00 100 1005.0
20260505231922 28 121 20.9 37.0 0.00 0.00 0.00 100 1005.1
20260505230921 28 130 22.5 37.0 0.00 0.00 0.00 100 1005.1
20260505230421 28 132 20.9 33.8 0.00 0.00 0.00 100 1005.1
20260505225921 28 138 19.3 33.8 0.00 0.00 0.00 100 1005.2
20260505225420 28 131 19.3 32.2 0.00 0.00 0.00 100 1005.1
20260505224920 28 130 20.9 33.8 0.00 0.00 0.00 100 1005.2
20260505224421 28 134 20.9 35.4 0.00 0.00 0.00 100 1005.0
20260505223921 28 145 20.9 35.4 0.00 0.00 0.00 100 1005.1
20260505223421 28 132 19.3 33.8 0.00 0.00 0.00 100 1005.2
20260505222920 28 156 19.3 33.8 0.00 0.00 0.00 100 1005.2
20260505222419 28 130 19.3 33.8 0.00 0.00 0.00 100 1005.3
20260505221919 28 111 20.9 35.4 0.00 0.00 0.00 100 1005.2
20260505221419 28 128 20.9 35.4 0.00 0.00 0.00 100 1005.2
20260505220919 28 134 20.9 37.0 0.00 0.00 0.00 100 1005.2
20260505215919 28 161 22.5 41.8 0.00 0.00 0.00 100 1005.3
20260505215419 29 151 19.3 41.8 0.00 0.00 0.00 100 1005.3
20260505214419 29 119 20.9 37.0 0.00 0.00 0.00 100 1005.2
20260505213918 29 121 22.5 37.0 0.00 0.00 0.00 100 1005.3
20260505213417 29 137 20.9 35.4 0.00 0.00 0.00 100 1005.4
20260505212917 29 130 20.9 37.0 0.00 0.00 0.00 100 1005.6
20260505212417 28 154 20.9 40.2 0.00 0.00 0.00 100 1005.7
20260505211917 28 175 22.5 40.2 0.00 0.00 0.00 100 1005.8
20260505211417 28 146 20.9 37.0 0.00 0.00 0.00 100 1005.8
20260505210417 29 144 19.3 35.4 0.00 0.00 0.00 100 1006.0
20260505205917 28 173 19.3 33.8 0.00 0.00 0.00 100 1006.0
20260505204916 29 139 17.7 33.8 0.00 0.00 0.00 100 1006.4
20260505204416 29 131 19.3 35.4 0.00 0.00 0.00 100 1006.4
20260505203916 29 160 19.3 35.4 0.00 0.00 0.00 100 1006.3
20260505203415 29 139 17.7 32.2 0.00 0.00 0.00 100 1006.4
20260505202915 29 163 17.7 32.2 0.00 0.00 0.00 100 1006.4
20260505201915 29 142 19.3 35.4 0.00 0.00 0.00 100 1006.6
20260505200915 29 157 17.7 35.4 0.00 0.00 0.00 100 1006.6
20260505200415 29 134 17.7 35.4 0.00 0.00 0.00 100 1006.6
20260505195915 29 134 17.7 33.8 0.00 0.00 0.00 100 1006.7
20260505195413 29 166 19.3 33.8 0.00 0.00 0.00 100 1006.8
20260505194913 29 137 19.3 40.2 0.00 0.00 0.00 100 1006.8
20260505194413 29 133 22.5 40.2 0.00 0.00 0.00 100 1006.9
20260505193912 30 179 24.1 40.2 0.00 0.00 0.00 100 1007.0
20260505193413 30 148 22.5 40.2 0.00 0.00 0.00 100 1007.0
20260505192913 30 204 20.9 40.2 0.00 0.00 0.00 100 1007.0
20260505192413 30 161 20.9 41.8 0.00 0.00 0.00 100 1007.0
20260505191913 30 203 24.1 41.8 0.00 0.00 0.00 100 1007.2
20260505191413 29 171 24.1 41.8 0.00 0.00 0.00 100 1007.3
20260505190912 29 142 22.5 35.4 0.00 0.00 0.00 100 1007.2
20260505190411 29 208 19.3 37.0 0.00 0.00 0.00 100 1007.1
20260505185911 29 175 20.9 40.2 0.00 0.00 0.00 100 1007.1
20260505185411 29 171 20.9 40.2 0.00 0.00 0.00 100 1007.0
20260505184911 29 130 19.3 37.0 0.00 0.00 0.00 100 1007.1
20260505184411 28 173 19.3 38.6 0.00 0.00 0.00 100 1007.0
20260505183911 28 137 19.3 38.6 0.00 0.00 0.00 100 1007.1
20260505183411 28 141 19.3 38.6 0.00 0.00 0.00 100 1007.2
20260505182411 28 178 20.9 40.2 0.00 0.00 0.00 100 1007.4
20260505181911 28 158 20.9 38.6 0.00 0.00 0.00 100 1007.3
20260505181409 28 167 22.5 38.6 0.00 0.00 0.00 100 1007.4
20260505180909 28 157 24.1 38.6 0.00 0.00 0.00 100 1007.5
20260505175909 28 167 22.5 35.4 0.00 0.00 0.00 100 1007.6
20260505175409 28 163 25.7 37.0 0.00 0.00 0.00 100 1007.7
20260505174910 28 167 22.5 38.6 0.00 0.00 0.00 100 1007.6
20260505174409 28 168 20.9 38.6 0.00 0.00 0.00 100 1007.7
20260505173409 28 157 22.5 37.0 0.00 0.00 0.00 100 1007.8
20260505172908 28 144 22.5 38.6 0.00 0.00 0.00 100 1007.8
20260505172407 28 195 24.1 41.8 0.00 0.00 0.00 100 1007.9
20260505171908 28 175 22.5 41.8 0.00 0.00 0.00 100 1007.8
20260505171407 28 165 20.9 38.6 0.00 0.00 0.00 100 1007.9
20260505170907 28 180 20.9 40.2 0.00 0.00 0.00 100 1008.0
20260505170407 28 147 19.3 40.2 0.00 0.00 0.00 100 1008.0
20260505165907 28 193 17.7 33.8 0.00 0.00 0.00 100 1008.1
20260505165407 28 163 17.7 35.4 0.00 0.00 0.00 100 1008.1
20260505164907 28 147 19.3 35.4 0.00 0.00 0.00 100 1008.1
20260505164407 28 152 17.7 30.6 0.00 0.00 0.00 100 1008.2
20260505163906 28 155 17.7 29.0 0.00 0.00 0.00 100 1008.3
20260505163405 28 170 16.1 29.0 0.00 0.00 0.00 100 1008.2
20260505162905 28 167 17.7 30.6 0.00 0.00 0.00 100 1008.1
20260505162405 28 198 19.3 35.4 0.00 0.00 0.00 100 1008.1
20260505161905 28 157 17.7 35.4 0.00 0.00 0.00 100 1008.0
20260505160905 28 151 19.3 35.4 0.00 0.00 0.00 100 1007.9
20260505152903 27 175 20.9 33.8 0.00 0.00 0.00 100 1007.7
20260505152403 27 192 17.7 33.8 0.00 0.00 0.00 100 1007.7
20260505151904 27 160 17.7 30.6 0.00 0.00 0.00 100 1007.7
20260505151403 27 171 17.7 32.2 0.00 0.00 0.00 100 1007.6
20260505150903 27 167 17.7 32.2 0.00 0.00 0.00 100 1007.7
20260505150403 27 186 19.3 35.4 0.00 0.00 0.00 100 1007.7